Retour au catalogue

DELTA 1 DEB

ActifSSO
NORAD 26861·DEBRIS·🇺🇸 United States

Lancé Mar 5, 1978 depuis Vandenberg Space Force Base

Loading…

Prochains Passages (prochaines 24 heures)

TLE

FraisSource: Space-Track

Époque: Sep 14, 2026, 17:37 UTC

1 26861U 78026HV  26257.73411304  .00000114  00000-0  58417-4 0  9996
2 26861  98.8157 254.1560 0101398  85.5837 275.6921 14.29745587203485

Suivez DELTA 1 DEB en temps réel avec AllMySat

Download on the App Store